Home > Weather > Idar-Oberstein > Past weeks

Flag for Germany Past Weather in Idar-Oberstein, Rhineland-Palatinate, Germany — Yesterday and Last 2 Weeks

Now
59 °F

Partly sunny.


Feels Like: 58 °F
Forecast: 56 / 65 °F
Wind: 6 mph from Southwest

Location: Hahn

Current Time: Jun 27, 2016 at 5:07:50 PM

Latest Report: Jun 27, 2016 at 4:20 PM


Visibility: N/A

Pressure: 30.12 "Hg

Humidity: 88%

Dew Point: 55 °F

Location of Idar-ObersteinLocation

Past Weather in Idar-Oberstein — Graph

°F

Idar-Oberstein Temperature Yesterday

Maximum temperature yesterday: 64 °F (at 2:50 PM)
Minimum temperature yesterday: 48 °F (at 4:50 AM)
Average temperature yesterday: 55 °F

High & Low Weather Summary for the Past Weeks

 TemperatureHumidityPressure
High86 °F (Jun 23, 3:20 PM)100% (Jun 12, 6:20 PM)30.27 "Hg (Jun 12, 6:20 PM)
Low45 °F (Jun 16, 2:50 AM)46% (Jun 23, 4:50 PM)29.53 "Hg (Jun 14, 2:20 PM)
Average59 °F87%29.95 "Hg
* Reported Jun 12 3:50 PM — Jun 27 3:50 PM, Idar-Oberstein, Weather by CustomWeather, © 2016

Note: Actual official high and low records may vary slightly from our data, if they occured in-between our weather recording intervals... More about our weather records

Advertising

Idar-Oberstein Weather History for the Previous 24 Hours

Scroll right to see more
 ConditionsComfort  
Time TempWeatherWind HumidityBarometerVisibility
3:50 PM
Mon, Jun 27
57 °FPartly sunny.6 mph94%30.12 "HgN/A
3:20 PM59 °FPartly sunny.13 mph88%30.12 "HgN/A
2:20 PM59 °FPartly sunny.13 mph82%30.12 "HgN/A
1:50 PM59 °FPartly sunny.10 mph82%30.15 "HgN/A
1:20 PM59 °FPartly sunny.9 mph82%30.12 "HgN/A
12:50 PM57 °FPartly sunny.9 mph88%30.15 "HgN/A
12:20 PM55 °FDrizzle. Partly sunny.13 mph94%30.15 "Hg2 mi
11:50 AM59 °FLight rain. Partly sunny.12 mph77%30.15 "HgN/A
11:20 AM57 °FScattered clouds.15 mph82%30.15 "HgN/A
10:50 AM57 °FScattered clouds.9 mph82%30.15 "HgN/A
10:20 AM57 °FScattered clouds.8 mph82%30.15 "HgN/A
9:50 AM57 °FScattered clouds.12 mph82%30.15 "HgN/A
9:20 AM55 °FScattered clouds.10 mph88%30.15 "HgN/A
8:50 AM54 °FBroken clouds.6 mph94%30.15 "HgN/A
8:20 AM54 °FScattered clouds.5 mph94%30.15 "HgN/A
7:50 AM52 °FPassing clouds.8 mph100%30.12 "HgN/A
7:20 AM50 °FScattered clouds.9 mph100%30.12 "HgN/A
6:50 AM50 °FFog.8 mph100%30.12 "Hg1 mi
5:50 AM50 °FPassing clouds.6 mph100%30.12 "Hg4 mi
5:20 AM50 °FPassing clouds.6 mph94%30.12 "Hg4 mi
4:50 AM50 °FPassing clouds.7 mph100%30.12 "HgN/A
3:50 AM50 °FClear.8 mph94%30.12 "Hg10 mi
3:20 AM50 °FPassing clouds.6 mph94%30.12 "HgN/A
2:50 AM50 °FClear.9 mph94%30.12 "Hg10 mi
2:20 AM50 °FClear.8 mph100%30.12 "Hg10 mi
1:20 AM50 °FClear.8 mph94%30.12 "Hg10 mi
12:50 AM50 °FClear.8 mph94%30.12 "Hg10 mi
12:20 AM50 °FClear.8 mph94%30.12 "Hg10 mi
11:50 PM
Sun, Jun 26
50 °FClear.8 mph94%30.12 "Hg10 mi
11:20 PM50 °FClear.8 mph94%30.12 "Hg10 mi
10:50 PM50 °FClear.7 mph94%30.12 "Hg10 mi
10:20 PM52 °FSunny.6 mph88%30.12 "Hg10 mi
9:50 PM52 °FSunny.5 mph88%30.09 "Hg10 mi
9:20 PM52 °FPassing clouds.5 mph94%30.09 "HgN/A
8:50 PM52 °FSunny.6 mph94%30.09 "Hg10 mi
8:20 PM52 °FSprinkles. Scattered clouds.8 mph94%30.12 "HgN/A
7:50 PM57 °FSprinkles. Scattered clouds.9 mph72%30.09 "HgN/A
7:20 PM61 °FSprinkles. Passing clouds.7 mph68%30.09 "HgN/A
6:50 PM63 °FPassing clouds.10 mph64%30.09 "HgN/A
6:20 PM61 °FPassing clouds.9 mph63%30.09 "HgN/A
5:50 PM61 °FPassing clouds.12 mph68%30.09 "HgN/A
5:20 PM61 °FPassing clouds.9 mph68%30.09 "HgN/A
Weather by CustomWeather, © 2016

See weather overviewHow to use our weather pages